SES-18

Last updated on Mon Sep 07 2026 00:03:02 GMT+0000 (Coordinated Universal Time)

1 55970U 23038A 26249.57136824 -.00000117 00000+0 00000+0 0 9999 2 55970 0.0483 282.3202 0002008 301.4128 224.5171 1.00270533 12917
UTC large
Height (km)
Speed (km/s)
/
Latitude / Longitude
Inclination (degrees)
Orbital Period (minutes)
Azimuth
Elevation
Range (km)
Doppler Factor

Next 0 passes for location: London (51.5072 / 0.1276)

No passes found over London.
SES-18